www.pogodaiklimat.ru

АРХИВ ПОГОДЫ в Тулсе

Время (UTC), дата Ветер
(напр.,м/с)
 
Видим.   Явления Облачность Т
(С)
Тd
(С)
f
(%)
Тe
(С)
Тes
(С)
Комфортность

P
(гПа)

Po
(гПа)
Тmin
(С)
Tmax
(С)
R
(мм)
SD
(см)
23:53 14.07 В  16 км    5/5 1170 м  +28.9  +21.7  65  +37  +38  очень
душно 
1012.3  988.6         
00:53 15.07 В  16 км    8/8 1200 м  +28.3  +21.7  67  +36  +36  очень
душно 
1012.3  988.6         
01:53 15.07 В  16 км    8/8 1200 м  +26.1  +21.1  74  +33  +33  очень
душно 
1012.9  989.2         
02:53 15.07 В  16 км    2/2 1650 м  +25.6  +20.6  74  +32  +32  очень
душно 
1013.0  989.2         
03:53 15.07 В  16 км    ясно  +24.4  +20.0  76  +30  +30  очень
душно 
1013.4  989.6         
04:53 15.07 В  16 км    ясно  +23.3  +20.0  82  +30  +30  очень
душно 
1013.4  989.6  +22.8  +30.0     
05:53 15.07 В  16 км    ясно  +22.8  +19.4  81  +29  +29  очень
душно 
1013.2  989.2         
06:53 15.07 С  16 км    ясно  +22.2  +20.0  87  +28  +28  душно  1012.7  988.9         
07:53 15.07 СВ  16 км    ясно  +21.7  +19.4  87  +27  +27  душно  1012.2  988.6         
08:53 15.07 С  16 км    ясно  +21.1  +19.4  90  +26  +26  душно  1012.0  988.2         
09:53 15.07 СЗ  16 км    ясно  +20.6  +19.4  93  +25  +25  комфорт  1012.2  988.6         
10:53 15.07 СЗ  16 км    2/0 3600 м
[средняя] 
+20.6  +19.4  93  +25  +25  комфорт  1012.3  988.6  +20.0  +23.3     
11:53 15.07 С  16 км    2/0 3600 м
[средняя] 
+22.2  +20.0  87  +28  +28  душно  1012.8  988.9         
12:53 15.07 С  16 км    8/8 450 м
[средняя] 
+24.4  +20.6  79  +30  +31  очень
душно 
1013.1  989.2         
13:53 15.07 С  16 км    10/10 600 м  +25.0  +20.6  77  +31  +31  очень
душно 
1012.9  989.2         
14:53 15.07 С  16 км    8/8 600 м  +25.6  +20.6  74  +32  +33  очень
душно 
1012.3  988.6         
15:53 15.07 С  16 км    8/8 450 м  +27.2  +20.6  67  +34  +35  очень
душно 
1012.1  988.2         
16:53 15.07 С  16 км    8/8 990 м  +27.8  +20.6  65  +35  +36  очень
душно 
1011.5  987.6  +20.6  +28.3     
17:53 15.07 С  16 км    8/8 900 м
[верхняя] 
+28.3  +20.6  63  +35  +36  очень
душно 
1011.0  987.3         
18:53 15.07 С  16 км    10/10 1050 м  +28.9  +21.1  63  +36  +36  очень
душно 
1010.8  986.9         
19:53 15.07 СВ  16 км    10/10 960 м  +28.9  +21.1  63  +36  +36  очень
душно 
1010.6  986.9         
20:53 15.07 СЗ  16 км    8/8 990 м
[средняя] 
+28.3  +21.1  65  +36  +38  очень
душно 
1010.3  986.6         
21:53 15.07 С  16 км    10/10 960 м  +28.9  +21.1  63  +36  +36  очень
душно 
1009.7  985.9         
22:53 15.07 СЗ  16 км    10/10 900 м  +27.8  +21.1  67  +35  +35  очень
душно 
1009.9  986.3  +27.2  +29.4     
23:53 15.07 С  16 км    10/10 900 м  +27.8  +21.1  67  +35  +35  очень
душно 
1010.1  986.3         
00:53 16.07   16 км    8/8 1800 м  +26.7  +20.6  69  +33  +33  очень
душно 
1010.0  986.3         
01:53 16.07   16 км    2/2 1650 м  +25.6  +21.1  76  +32  +32  очень
душно 
1010.6  986.9         
02:53 16.07   16 км    ясно  +24.4  +21.1  82  +31  +31  очень
душно 
1011.1  987.3         
03:53 16.07   16 км    ясно  +23.9  +21.1  84  +30  +30  очень
душно 
1011.4  987.6         
04:53 16.07   16 км    ясно  +23.9  +21.7  88  +31  +31  очень
душно 
1011.8  987.9  +23.3  +28.3     
05:53 16.07   16 км    ясно  +23.3  +21.7  91  +32  +32  очень
душно 
1011.8  987.9         
06:53 16.07 Ю  16 км    ясно  +22.8  +21.1  90  +30  +30  очень
душно 
1011.2  987.6         
07:53 16.07   16 км    ясно  +23.3  +21.1  87  +31  +31  очень
душно 
1011.0  987.3         
08:53 16.07   16 км    ясно  +22.2  +21.1  93  +29  +29  очень
душно 
1010.8  986.9         
09:53 16.07   16 км    ясно  +21.1  +20.6  97  +26  +26  душно  1011.2  987.6         
10:53 16.07   16 км    2/0 4800 м
[средняя] 
+21.7  +20.6  93  +27  +27  душно  1011.8  987.9  +20.6  +24.4     
11:53 16.07   16 км    2/0 4800 м
[средняя верхняя] 
+23.9  +21.7  88  +31  +31  очень
душно 
1012.2  988.2         
12:53 16.07 Ю  16 км    5/0 7500 м
[верхняя] 
+27.2  +22.2  74  +35  +38  очень
душно 
1012.9  989.2         
13:53 16.07   16 км    8/0 7500 м
[верхняя] 
+28.9  +21.7  65  +37  +44  очень
душно 
1013.1  989.2         
14:53 16.07 В  16 км    8/0 7500 м
[верхняя] 
+30.0  +21.1  59  +38  +46  очень
душно 
1012.9  989.2         
15:53 16.07 В  16 км    10/0 7500 м
[верхняя] 
+31.1  +22.2  59  +40  +53  опасность
солнечного
удара 
1012.8  989.2         
16:53 16.07 В  16 км    8/2 960 м
[верхняя] 
+31.1  +23.3  63  +42  +51  опасность
перегрева 
1013.0  989.2  +21.7  +32.2     
17:53 16.07   16 км    8/2 990 м
[верхняя] 
+32.2  +23.3  59  +43  +62  опасность
перегрева 
1012.3  988.6         
18:53 16.07 ЮВ  16 км    8/2 1140 м
[верхняя] 
+33.3  +23.3  56  +44  +53  опасность
перегрева 
1011.4  987.6         
19:53 16.07 Ю  16 км    5/2 1200 м
[средняя верхняя] 
+34.4  +22.8  51  +44  +53  опасность
перегрева 
1010.7  986.9         
20:53 16.07 нст  16 км    8/2 1200 м
[средняя верхняя] 
+35.0  +22.8  49  +45  +50  опасность
перегрева 
1011.0  987.3         
21:53 16.07 З  16 км    5/2 1500 м
[средняя верхняя] 
+35.6  +24.4  53  +48  +53  опасность
перегрева 
1010.7  986.9         
22:53 16.07 Ю  16 км    8/2 1500 м
[средняя верхняя] 
+35.0  +23.9  53  +47  +49  опасность
перегрева 
1010.0  986.6  +31.1  +35.6     

 

Местоположение метеостанции Tulsa International Airport: широта 36.1975 долгота -95.8864 высота над уровнем моря 206 м.

В архиве по умолчанию представлена погода в Тулсе за последние 1-2 суток. Обновление информации о фактической погоде в базе происходит ежечасно! Архивные данные за месяц целиком и за предыдущие месяцы Вы можете получить, выбрав интересующий диапазон дат из раскрывающегося списка и нажав кнопку "Ввод!".

Внимание! Архив погоды МЕТАР в базе сайта в настоящее время начинается c 1 января 2011 г. Нет смысла пытаться выбрать более раннюю дату.

Внимание! Время в таблицах - всемирное. Для получения местного времени необходимо прибавить поправку, которая в Тулсе равна -6 ч.

Ветер - указаны скорость ветра в м/с и направление, откуда дует ветер: С - северный, СВ - северо-восточный, В - восточный, ЮВ - юго-восточный, Ю - южный, ЮЗ - юго-западный, З - западный, СЗ - северо-западный.
Видимость - горизонтальная дальность видимости в метрах или километрах. При видимости от 1 до 10 км при отсутствии осадков обычно наблюдается дымка, при ухудшении видимости до 1 км и менее - туман. В сухую погоду видимость может ухудшаться дымом, пылью или мглою.
Атмосферные явления - указаны явления, наблюдавшиеся в указанный момент времени.
Облачность - указаны через наклонную черту верхняя и нижняя облачность в баллах и высота нижней границы облаков в метрах. Внимание: облачность, как и прочие метеорологические величины в США измеряются автоматическими метеостанциями. Указанные значения в баллах носят условный характер и показывают процент времени, в течение которого, в среднем, лазерный луч высотомера отражался от облаков обратно.
T - Температура воздуха - температура, измеренная на высоте 2 м над землей.
Td - Температура точки росы - температура, при понижении до которой содержащийся в воздухе водяной пар достигнет насыщения.
f - Относительная влажность воздуха - влажноcть воздуха, измеренная на высоте 2 м над землей.
Te - Эффективная температура - температура, которую ощущает одетый по сезону человек в тени. Характеристика душности погоды. При расчете учитывается влияние влажности воздуха и скорости ветра на теплоощущения человека.
Tes - Эффективная температура на солнце - температура, которую ощущает человек, с поправкой на солнечный нагрев. Характеристика знойности погоды. Зависит от высоты солнца над горизонтом, облачности и скорости ветра. Ночью, в пасмурную погоду, а также при ветре 12 м/с и более поправка равна нулю.
P - Атмосферное давление - приведенное к уровню моря атмосферное давление.
Po - Атмосферное давление - измеренное на уровне метеостанции атмосферное давление.
Tmin - Минимальная температура - минимум температуры воздуха на высоте 2 м над землей.
Tmax - Максимальная температура - максимум температуры воздуха на высоте 2 м над землей.
R - Количество осадков - Количество выпавших осадков за 3 или 6 часов, мм.
SD - Снежный покров - Высота снежного покрова, см.